Погода в Пиларе

Аргентина     34°27′35″S   58°54′34″W
темп.,
°C
ветер,
м/с
пор.,
м/с
влажн.,
%
обл.,
%
осадки,
мм/ч
давл.,
гПа
погр.,
м
8 августа, пн
пн800:00+7юв59835 0.0 1025314
03:00+5юв359117 0.0 102776
06:00+5юв379431 0.0 1027123
09:00+7юв488355 0.0 1029259
12:00+12вюв456139 0.0 10291192
15:00+14в5549100 0.0 10271592
18:00+11в356286 0.0 102876
21:00+9вюв3569100 0.0 102990
9 августа, вт
вт900:00+8юв3682100 0.0 1030110
03:00+6ююв34865 0.0 103058
06:00+5ююв34885 0.0 103056
09:00+8ююв34785 0.0 1032136
12:00+14в33562 0.0 10321146
15:00+15в324638 0.0 10301605
18:00+12всв34595 0.0 102955
21:00+8всв46730 0.0 103087
10 августа, ср
ср1000:00+7св35802 0.0 103067
03:00+6св23860 0.0 102931
06:00+5ссв33835 0.0 102835
09:00+7ссв35745 0.0 1028147
12:00+14ссв455365 0.0 1027886
15:00+17ссв4642100 0.0 10241311
18:00+13ссв3557100 0.0 102390
21:00+9ссв4873100 0.0 1023140
11 августа, чт
чт1100:00+8ссв49855 0.0 1024165
03:00+7ссв39930 0.0 1023174
06:00+6ссв39950 0.0 1022174
09:00+9ссв411870 0.0 1022286
12:00+16с695694 0.0 10211045
15:00+18ссз6847100 0.0 10181428
18:00+15с4862100 0.0 1017163
21:00+11ссв4879100 0.0 1018146
12 августа, пт
пт1200:00+10ссв3791100 0.0 1018138
03:00+10с3894100 0.0 1018150
06:00+9с2295100 0.0 101835
09:00+11ссз24880 0.0 1020127
12:00+18ссз33610 0.0 1019765
15:00+20зсз224826 0.0 10181622
18:00+18св015395 0.0 101811
21:00+14св33740 0.0 102031